STARLINK-32082, 60346

Orbit data source: Space-Track

STARLINK-32082, 60346 is a payload satellite owned by SpaceX/Seattle (US) in LEO that was launched on Fri, 02 Aug 2024 UTC via an FALCON 9 launch vehicle from the Air Force Eastern Test Range (AFETR). Payload-class satellites include a variety of spacecraft equipped with specific instruments for various scientific and technological missions. These include communications satellites like Starlink; space stations such as the ISS; scientific satellites like the Hubble; Earth observation satellites from companies like Planet Labs, Umbra, and HawkEye 360; GPS; miniature CubeSats for education and research; and military/defense satellites.

Loading next visibility...
Identifier
60346, 2024-136T
Orbit
LEO
Country
Flag of USUS
Related business
Manufacturer
SpaceX/Seattle
Mission
Operational Commercial Communications
Bus & Motor
STARLINK V2M, Unknown motor
Mass
730 kg wet, ~700 kg dry
Launch date (UTC)
2024-08-02 (1 year ago)
Launch vehicle
FALCON 9
Launch site
Air Force Eastern Test Range (AFETR)
Object type
Payload
Rocket body
Debris
Shape & HBR
Box + 2 Pan, 17.7 m
Radar Cross Section
33.884 m², Large (>1 m²)

Expand to show TLE details & history
Last TLE update: 12 hours ago

TLE from 12 hours ago
0 STARLINK-32082
1 60346U 24136T   25299.12118872  .00002234  00000-0  87543-4 0  9994
2 60346  53.1612 340.5702 0001395  86.8518 273.2643 15.30189492 69064
Epoch: 2025-10-26T02:54Z
TLE epoch observation values (Epoch: 2025-10-26T02:54:30.705Z)
Latitude
0.00003°
Longitude
-97.79965°
Altitude
476.092 km
Speed
7.629 km/s
True Right ascension
22h 42m 16s
True Declination
0° 00' 00"
Sunlit
Object was in full shadow at epoch
Visualization orbit readout
Latitude
Unknown
Longitude
Unknown
Altitude
Unknown
Speed
Unknown
Apparent Right ascension
Unknown
Apparent Declination
Unknown
Sunlit
N/A
Visualization observer readout
Local Sidereal Time
10:03:24
Azimuth
Unknown
Elevation
Unknown
Doppler factor
Unknown
Orbital elements
Apogee altitude
476.459 km
Perigee altitude
474.547 km
Semi-major axis
6,853.64 km
Eccentricity
0.00014
Inclination
53.1612°
RAAN
340.5702°
Arg. of periapsis
86.8518°
True anomaly
273.24834°
Mean anomaly
273.2643°
Eccentric anomaly
273.25632°
Mean motion
3.82526 °/min
Orbital period
94.11 mins
BSTAR
0.000087543
Loading maneuver chart data...
Computing Atmospheric mass density...
Loading historical data...
Loading historical data...
Loading historical data...
Loading historical data...
Loading historical data...
Loading historical data...
Loading historical data...

Documentation

Showing up to 5 results
|